www.pogodaiklimat.ru

Погода и климат >> Архив погоды >> Мексика >> Sombrerete


ПОГОДА в Sombrerete

  • Прогноз погоды в Sombrerete
  • Монитор погоды в Sombrerete
  • Климат города

АРХИВ ПОГОДЫ в Sombrerete

Время (UTC), дата Ветер
(напр.,м/с)
 
Видим.   Явления Облачность Т
(С)
Тd
(С)
f
(%)
Тe
(С)
Тes
(С)
Комфортность P
(гПа)
Po
(гПа)
Тmin
(С)
Tmax
(С)
R
(мм)
R24
(мм)
S
(см)
06 13.06 ЮВ 4 14 км слабая морось 10/10 300 м
[Frnb]
+13.6 +13.3 98 +12 +12 1005.4 769.7 7
12 13.06 штиль 0 16 км 10/0 1500 м
[As op]
+13.4 +12.2 92 +13 +13 1007.4 768.1 +12.2 +26.3 0.2
15 13.06 штиль 0 16 км 10/3 1170 м
[Cu hum Ac trans]
+16.8 +13.8 82 +17 +20 1009.1 769.3
18 13.06 В 1 16 км 9/9 1050 м
[Cb calv]
+21.0 +12.3 58 +25 +27 комфорт 1008.6 769.9 +12.1 +21.0
21 13.06 В 2 16 км 8/4 1110 м
[Cu med, cong As trans]
+22.0 +12.5 55 +25 +31 комфорт 1005.8 769.1
00 14.06 ЮВ 4 16 км 9/4 1000 м
[Cu med, cong As op]
+22.0 +11.4 51 +24 +25 комфорт 1002.5 768.1 +12.1 +24.2
03 14.06 штиль 0 16 км 9/9 720 м
[Sc]
+16.6 +12.8 78 +17 +17 1002.9 768.7
06 14.06 штиль 0 16 км 8/8 660 м
[Sc]
+16.0 +12.3 79 +16 +16 1004.9 769.6 +12.1 +24.2
12 14.06 штиль 0 16 км слабая морось 9/0 1500 м
[As op]
+15.5 +13.7 89 +15 +15 1007.4 769.4 0.0
15 14.06 штиль 0 16 км {морось} 10/4 1000 м
[Sc Ac und]
+17.6 +13.7 78 +18 +20 1008.2 769.9 0.0
18 14.06 штиль 0 16 км {морось} 10/6 600 м
[Sc Ac und]
+21.2 +12.9 59 +23 +27 комфорт 1007.5 770.1 0.0
21 14.06 штиль 0 16 км 10/10 1300 м
[Sc]
+19.8 +9.4 51 +21 +21 комфорт 1005.1 768.9
00 15.06 ЮВ 3 16 км 9/9 1000 м
[Sc diur, vesp]
+20.0 +12.2 61 +22 +22 комфорт 1002.8 767.7 +14.2 +22.0
03 15.06 ЮЗ 1 16 км 9/9 630 м
[Sc diur, vesp]
+16.0 +13.0 82 +17 +17 1004.1 768.8
06 15.06 штиль 0 16 км ясно +15.0 +13.0 88 +15 +15 1006.3 769.7 +14.2 +22.0
12 15.06 штиль 0 15 км туман местами 5/0 1500 м
[Ac inh]
+13.3 +12.8 97 +13 +13 1007.5 768.7 +12.8 +22.0
15 15.06 З 1 16 км 5/5 900 м
[St]
+19.6 +12.7 64 +22 +27 комфорт 1008.7 769.5
18 15.06 ЮЗ 1 16 км 3/3 900 м
[Cu hum]
+25.4 +11.3 41 +27 +44 жарко 1006.6 769.3 +12.6 +25.4
21 15.06 ЮЗ 1 16 км 5/5 1500 м
[Cu med, cong]
+26.5 +8.6 32 +27 +37 жарко 1001.3 767.2
00 16.06 СЗ 3 16 км 8/8 1000 м
[Sc diur, vesp]
+23.2 +8.0 38 +24 +25 комфорт 997.3 766.0 +12.6 +29.6
12 16.06 штиль 0 16 км ясно +13.0 +10.8 86 +13 +13 1004.2 767.8 +12.6 +29.6
15 16.06 штиль 0 16 км ясно +21.0 +10.5 51 +23 +33 комфорт 1005.9 768.5
18 16.06 штиль 0 16 км 3/3 1500 м
[Cu hum]
+27.0 +10.4 35 +28 +48 жарко 1003.9 768.1 +12.2 +27.6
12 17.06 штиль 0 16 км 5/4 600 м
[Sc diur, vesp Ci fib]
+14.8 +13.0 89 +14 +14 1002.0 767.6 +14.4 +32.0
15 17.06 С 1 16 км 6/0 2000 м
[Ac und Ci fib]
+21.6 +10.5 49 +23 +29 комфорт 1004.9 769.0
18 17.06 штиль 0 16 км 8/8 1470 м
[Sc diur, vesp]
+23.5 +11.6 47 +25 +31 комфорт 1004.7 769.1 +13.8 +24.2
21 17.06 С 4 16 км 8/8 1410 м
[Sc diur, vesp]
+24.8 +9.7 38 +26 +28 жарко 1001.4 767.6
00 18.06 В 1 15 км осадки на расстоянии {морось} 10/10 600 м
[Frnb]
+17.2 +12.4 73 +18 +18 1000.5 767.4 0.0
12 18.06 штиль 0 16 км в посл. час морось 9/9 300 м
[Sc]
+14.6 +13.7 94 +14 +14 1007.6 768.8 0.2
15 18.06 штиль 0 16 км 5/1 540 м
[Cu hum Ac lent]
+20.1 +13.1 64 +22 +28 комфорт 1009.6 770.2
18 18.06 С 2 16 км 8/8 800 м
[Cu med, cong]
+22.8 +12.0 51 +25 +30 комфорт 1007.4 769.8 +13.6 +24.0
21 18.06 В 2 16 км 8/4 1020 м
[Cu med, cong As op]
+22.4 +11.0 48 +24 +29 комфорт 1003.4 768.2
00 19.06 штиль 0 16 км слабая морось 10/10 600 м
[Frnb]
+17.6 +13.4 76 +18 +18 1003.2 768.6 0.0
12 19.06 штиль 0 16 км в посл. час дождь 9/9 600 м
[Sc]
+12.6 +11.7 94 +12 +12 1009.6 769.3 1
15 19.06 штиль 0 16 км 1/1 1000 м
[Cu hum]
+18.2 +12.8 71 +18 +28 1010.6 769.8
18 19.06 С 1 16 км 8/8 1020 м
[Cu med, cong]
+21.8 +13.6 60 +25 +30 комфорт 1008.5 769.4 +12.0 +22.6
21 19.06 С 5 16 км осадки на расстоянии {дождь} 9/9 600 м
[Frnb]
+17.4 +12.6 73 +17 +18 1005.5 768.1 3
00 20.06 С 1 16 км 9/9 1000 м
[Sc]
+21.8 +12.4 55 +24 +24 комфорт 1003.4 767.7 +12.0 +24.7 3

 

Местоположение метеостанции Sombrerete (Мексика): широта 23.63 долгота -103.60 высота над уровнем моря 2351 м.

В архиве по умолчанию представлена погода в Sombrerete за последнюю неделю. Архивные данные за месяц целиком и за предыдущие месяцы, начиная с января 2011 года, Вы можете получить, выбрав интересующий диапазон дат из раскрывающегося списка и нажав кнопку "Ввод!".


*Определитесь, кто Вы:
робот инопланетянин человек

Внимание! Время в таблицах - всемирное. Для получения местного времени необходимо прибавить поправку, которая в Sombrerete равна -6 ч.

Смотрите также архив погоды в соседних городах и на ближайших метеорологических станциях:

Погода в Durango (Мексика) (112 км)
Погода в Huejucar (Мексика) (141 км)
Погода в Zacatecas (Мексика) (147 км)
Погода в Colotlan (Мексика) (174 км)
Погода в Torreon (Мексика) (212 км)
Погода в Aguascalientes (Мексика) (237 км)
Погода в Tepic (Мексика) (265 км)
Погода в Tepehuanes (Мексика) (287 км)
Погода в Mazatlan (Мексика) (290 км)
Погода в Lagos De Moreno (Мексика) (307 км)

Пояснения к столбцам:

Ветер - указаны скорость ветра в м/с - средняя за 10 мин, порывы в срок и между сроками (в фигурных скобках) и направление, откуда дует ветер: С - северный, СВ - северо-восточный, В - восточный, ЮВ - юго-восточный, Ю - южный, ЮЗ - юго-западный, З - западный, СЗ - северо-западный.
Видимость - горизонтальная дальность видимости в метрах или километрах. При видимости от 1 до 10 км при отсутствии осадков обычно наблюдается дымка, при ухудшении видимости до 1 км и менее - туман. В сухую погоду видимость может ухудшаться дымом, пылью или мглою.
Явления - указаны атмосферные явления, наблюдавшиеся в срок или в последний час перед сроком; фигурными скобками обозначены явления, наблюдавшиеся между сроками (за 1-3 часа до срока); квадратными скобками обозначены град или гололедные отложения с указанием их диаметра в мм.
Облачность - указаны через наклонную черту общая и нижняя облачность в баллах и высота нижней границы облаков в метрах; квадратными скобками обозначены формы облаков: Ci - перистые, Cs - перисто-слоистые, Cc - перисто-кучевые, Ac - высококучевые, As - высокослоистые, Sc - слоисто-кучевые, Ns - слоисто-дождевые, Cu - кучевые, Cb - кучево-дождевые. Подробнее классификацию облаков см. в Атласе облаков (PDF).
T - Температура воздуха - температура, измеренная на высоте 2 м над землей.
Td - Температура точки росы - температура, при понижении до которой содержащийся в воздухе водяной пар достигнет насыщения.
f - Относительная влажность воздуха - влажноcть воздуха, измеренная на высоте 2 м над землей.
Te - Эффективная температура - температура, которую ощущает одетый по сезону человек в тени. Характеристика душности погоды. При расчете учитывается влияние влажности воздуха и скорости ветра на теплоощущения человека.
Tes - Эффективная температура на солнце - температура, которую ощущает человек, с поправкой на солнечный нагрев. Характеристика знойности погоды. Зависит от высоты солнца над горизонтом, облачности и скорости ветра. Ночью, в пасмурную погоду, а также при ветре 12 м/с и более поправка равна нулю.
P - Атмосферное давление - приведенное к уровню моря атмосферное давление.
Po - Атмосферное давление - измеренное на уровне метеостанции атмосферное давление.
Tmin - Минимальная температура - минимум температуры воздуха на высоте 2 м над землей.
Tmax - Максимальная температура - максимум температуры воздуха на высоте 2 м над землей.
R - Количество осадков - Количество выпавших осадков за период времени, мм. При наведении курсора мыши на число - период времени, за который выпало указанное количество осадков.
R24 - Количество осадков - Количество выпавших осадков за 24 часа, мм.
S - Снежный покров - Высота снежного покрова, см. При наведении курсора мыши на число - состояние снежного покрова и степень покрытия местности в баллах.